Location: Hylvaty SDH
(49.9612°N, 16.4057°E)
Time: 20:37:05
(UTC+02:00)

Transit 4A - Pass Details

Date: 09 August 2020
Orbit: 862 x 982 km, 66.8° (Epoch: 28 September)

Event Time Altitude Azimuth Distance (km) Brightness Sun altitude
Rises 19:48:06 0° 319° (NW) 3,654 12.2 4.3°
Reaches altitude 10° 19:50:49 10° 312° (NW) 2,716 11.9 3.9°
Maximum altitude 19:56:33 37° 247° (WSW) 1,479 9.6 3.1°
Drops below altitude 10° 20:02:20 10° 183° (S) 2,728 10.2 2.2°
Sets 20:05:05 0° 175° (S) 3,670 10.7 1.8°
